Weather History for KMZH - October, 2012

Change the Weather History Date:

Saturday, October 6, 2012

  Actual Average Record
Temperature  
Mean Temperature 37 °F -  
Max Temperature 44 °F 58 °F 80 °F (1961)
Min Temperature 28 °F 36 °F 17 °F (1976)
Degree Days  
Heating Degree Days 28    
Moisture  
Dew Point 19 °F    
Average Humidity 55    
Maximum Humidity 87    
Minimum Humidity 25    
Precipitation  
Precipitation 0.00 in - - ()
Sea Level Pressure  
Sea Level Pressure 30.17 in    
Wind  
Wind Speed 6 mph (NNW)    
Max Wind Speed 16 mph    
Max Gust Speed 24 mph    
Visibility 10 miles    
Events      
Averages and records for this station are not official NWS values.
T = Trace of Precipitation, MM = Missing Value Source: NWS Daily Summary

Daily Weather History Graph

Daily Weather History Graph

Search for Another Location

Airport or City:

Trip Planner

Search our weather history database for the weather conditions in past years. The results will help you decide how hot, cold, wet, or windy it might be!

Date:

Astronomy

Oct. 06, 2012 Rise Set
Actual Time 7:17 AM CDT 6:40 PM CDT
Civil Twilight 6:46 AM CDT 7:10 PM CDT
Nautical Twilight 6:12 AM CDT 7:45 PM CDT
Astronomical Twilight 5:36 AM CDT 8:20 PM CDT
Moon 10:40 PM CDT (10/6) 1:28 PM CDT (10/6)
Length of Visible Light 12h 23m
Length of Day
11h 23m
Waning Gibbous, 65% of the Moon is Illuminated
Oct 6
Waning Gibbous
Oct 8
Last Quarter
Oct 15
New
Oct 21
First Quarter
Oct 29
Full

Hourly Weather History & Observations

Time (CDT) Temp. Windchill Dew Point Humidity Pressure Visibility Wind Dir Wind Speed Gust Speed Precip Events Conditions
12:10 AM 33.8 °F 29.6 °F 30.2 °F 87% 30.07 in 10.0 mi NW 4.6 mph - N/A   Overcast
12:30 AM 33.8 °F 26.4 °F 28.4 °F 81% 30.08 in 10.0 mi NNW 9.2 mph - N/A   Overcast
12:50 AM 33.8 °F 26.4 °F 26.6 °F 75% 30.08 in 10.0 mi NNW 9.2 mph - N/A   Overcast
1:10 AM 33.8 °F - 28.4 °F 81% 30.08 in 10.0 mi Calm Calm - N/A   Overcast
1:30 AM 33.8 °F - 28.4 °F 81% 30.09 in 10.0 mi Calm Calm - N/A   Overcast
1:51 AM 32.0 °F - 28.4 °F 87% 30.09 in 10.0 mi Calm Calm - N/A   Mostly Cloudy
2:10 AM 32.0 °F - 26.6 °F 80% 30.09 in 10.0 mi Calm Calm - N/A   Overcast
2:30 AM 32.0 °F 27.5 °F 26.6 °F 80% 30.09 in 10.0 mi NNW 4.6 mph - N/A   Overcast
2:50 AM 32.0 °F - 26.6 °F 80% 30.10 in 10.0 mi Calm Calm - N/A   Overcast
3:10 AM 32.0 °F - 26.6 °F 80% 30.11 in 10.0 mi Calm Calm - N/A   Overcast
3:30 AM 33.8 °F 27.7 °F 26.6 °F 75% 30.11 in 10.0 mi NNW 6.9 mph 10.4 mph N/A   Overcast
3:50 AM 33.8 °F 27.7 °F 26.6 °F 75% 30.11 in 10.0 mi NNW 6.9 mph - N/A   Overcast
4:10 AM 33.8 °F 27.7 °F 26.6 °F 75% 30.12 in 10.0 mi NNW 6.9 mph - N/A   Overcast
4:30 AM 33.8 °F 29.6 °F 26.6 °F 75% 30.13 in 10.0 mi NNW 4.6 mph - N/A   Overcast
4:50 AM 32.0 °F 26.4 °F 26.6 °F 80% 30.13 in 10.0 mi NNW 5.8 mph - N/A   Mostly Cloudy
5:10 AM 32.0 °F 26.4 °F 26.6 °F 80% 30.13 in 10.0 mi NNW 5.8 mph - N/A   Overcast
5:30 AM 32.0 °F 24.2 °F 26.6 °F 80% 30.14 in 10.0 mi NNW 9.2 mph - N/A   Overcast
5:50 AM 32.0 °F 24.8 °F 26.6 °F 80% 30.14 in 10.0 mi NNW 8.1 mph - N/A   Overcast
6:10 AM 32.0 °F 25.6 °F 26.6 °F 80% 30.15 in 10.0 mi NNW 6.9 mph - N/A   Overcast
6:30 AM 32.0 °F 25.6 °F 26.6 °F 80% 30.15 in 10.0 mi NNW 6.9 mph - N/A   Mostly Cloudy
6:50 AM 32.0 °F - 26.6 °F 80% 30.16 in 10.0 mi Calm Calm - N/A   Mostly Cloudy
7:10 AM 32.0 °F 25.6 °F 26.6 °F 80% 30.16 in 10.0 mi NW 6.9 mph - N/A   Overcast
7:30 AM 32.0 °F 24.8 °F 26.6 °F 80% 30.17 in 10.0 mi NNW 8.1 mph - N/A   Overcast
7:50 AM 32.0 °F 24.2 °F 24.8 °F 75% 30.17 in 10.0 mi NNW 9.2 mph - N/A   Overcast
8:30 AM 33.8 °F 24.8 °F 24.8 °F 70% 30.18 in 10.0 mi NW 12.7 mph - N/A   Mostly Cloudy
8:50 AM 33.8 °F 24.8 °F 24.8 °F 70% 30.18 in 10.0 mi NNW 12.7 mph 16.1 mph N/A   Scattered Clouds
9:10 AM 35.6 °F 25.9 °F 23.0 °F 60% 30.19 in 10.0 mi North 16.1 mph 19.6 mph N/A   Clear
9:30 AM 35.6 °F 26.6 °F 23.0 °F 60% 30.20 in 10.0 mi NNW 13.8 mph 24.2 mph N/A   Clear
9:50 AM 35.6 °F 26.2 °F 23.0 °F 60% 30.20 in 10.0 mi NNW 15.0 mph 19.6 mph N/A   Clear
10:10 AM 35.6 °F 27.1 °F 23.0 °F 60% 30.21 in 10.0 mi North 12.7 mph 21.9 mph N/A   Clear
10:30 AM 37.4 °F 28.9 °F 21.2 °F 52% 30.21 in 10.0 mi North 13.8 mph 18.4 mph N/A   Clear
10:50 AM 39.2 °F 30.8 °F 19.4 °F 45% 30.22 in 10.0 mi North 15.0 mph 21.9 mph N/A   Scattered Clouds
11:10 AM 41.0 °F 34.7 °F 17.6 °F 39% 30.22 in 10.0 mi North 10.4 mph 23.0 mph N/A   Scattered Clouds
11:30 AM 42.8 °F 35.1 °F 17.6 °F 36% 30.22 in 10.0 mi North 16.1 mph - N/A   Scattered Clouds
11:50 AM 41.0 °F 33.9 °F 17.6 °F 39% 30.22 in 10.0 mi North 12.7 mph 17.3 mph N/A   Mostly Cloudy
12:10 PM 41.0 °F 35.2 °F 14.0 °F 33% 30.23 in 10.0 mi North 9.2 mph - N/A   Overcast
12:30 PM 41.0 °F 33.9 °F 14.0 °F 33% 30.23 in 10.0 mi NNW 12.7 mph 18.4 mph N/A   Overcast
12:50 PM 39.2 °F 32.5 °F 17.6 °F 42% 30.23 in 10.0 mi NNW 10.4 mph - N/A   Overcast
1:10 PM 41.0 °F 35.8 °F 17.6 °F 39% 30.22 in 10.0 mi North 8.1 mph - N/A   Overcast
1:30 PM 41.0 °F 33.9 °F 12.2 °F 31% 30.22 in 10.0 mi North 12.7 mph 17.3 mph N/A   Overcast
1:50 PM 39.2 °F 33.6 °F 10.4 °F 31% 30.22 in 10.0 mi NNW 8.1 mph 17.3 mph N/A   Overcast
2:10 PM 41.0 °F 35.8 °F 12.2 °F 31% 30.21 in 10.0 mi NNW 8.1 mph - N/A   Overcast
2:30 PM 42.8 °F 38.6 °F 12.2 °F 29% 30.21 in 10.0 mi NNW 6.9 mph 17.3 mph N/A   Overcast
2:50 PM 42.8 °F 37.0 °F 10.4 °F 27% 30.20 in 10.0 mi NNW 10.4 mph - N/A   Overcast
3:10 PM 42.8 °F 39.3 °F 12.2 °F 29% 30.19 in 10.0 mi NW 5.8 mph - N/A   Overcast
3:30 PM 42.8 °F 37.5 °F 10.4 °F 27% 30.19 in 10.0 mi North 9.2 mph - N/A   Overcast
3:50 PM 42.8 °F 38.6 °F 10.4 °F 27% 30.18 in 10.0 mi North 6.9 mph - N/A   Overcast
4:10 PM 44.6 °F 39.2 °F 10.4 °F 25% 30.18 in 10.0 mi North 10.4 mph 17.3 mph N/A   Overcast
4:30 PM 42.8 °F 38.0 °F 10.4 °F 27% 30.18 in 10.0 mi North 8.1 mph - N/A   Overcast
4:50 PM 42.8 °F 37.5 °F 10.4 °F 27% 30.18 in 10.0 mi NNW 9.2 mph - N/A   Overcast
5:10 PM 42.8 °F 38.6 °F 12.2 °F 29% 30.18 in 10.0 mi North 6.9 mph - N/A   Overcast
5:30 PM 42.8 °F 38.6 °F 12.2 °F 29% 30.17 in 10.0 mi NNW 6.9 mph - N/A   Overcast
5:50 PM 41.0 °F 35.8 °F 12.2 °F 31% 30.18 in 10.0 mi NNW 8.1 mph - N/A   Overcast
6:10 PM 41.0 °F - 10.4 °F 29% 30.18 in 10.0 mi Calm Calm - N/A   Mostly Cloudy
6:30 PM 39.2 °F - 10.4 °F 31% 30.18 in 10.0 mi Calm Calm - N/A   Overcast
6:50 PM 39.2 °F - 10.4 °F 31% 30.18 in 10.0 mi Calm Calm - N/A   Overcast
7:10 PM 39.2 °F 37.0 °F 10.4 °F 31% 30.18 in 10.0 mi NW 3.5 mph - N/A   Overcast
7:30 PM 39.2 °F - 12.2 °F 33% 30.18 in 10.0 mi Calm Calm - N/A   Overcast
7:50 PM 37.4 °F - 12.2 °F 36% 30.18 in 10.0 mi Calm Calm - N/A   Mostly Cloudy
8:10 PM 37.4 °F - 14.0 °F 38% 30.18 in 10.0 mi Calm Calm - N/A   Mostly Cloudy
8:30 PM 35.6 °F - 15.8 °F 44% 30.18 in 10.0 mi Calm Calm - N/A   Scattered Clouds
8:50 PM 33.8 °F - 17.6 °F 52% 30.18 in 10.0 mi Calm Calm - N/A   Clear
9:10 PM 32.0 °F - 17.6 °F 55% 30.18 in 10.0 mi Calm Calm - N/A   Scattered Clouds
9:30 PM 30.2 °F - 17.6 °F 60% 30.18 in 10.0 mi Calm Calm - N/A   Clear
9:50 PM 30.2 °F - 17.6 °F 60% 30.18 in 10.0 mi Calm Calm - N/A   Scattered Clouds
10:10 PM 32.0 °F - 17.6 °F 55% 30.18 in 10.0 mi Calm Calm - N/A   Scattered Clouds
10:30 PM 32.0 °F - 17.6 °F 55% 30.18 in 10.0 mi Calm Calm - N/A   Clear
10:50 PM 32.0 °F - 17.6 °F 55% 30.18 in 10.0 mi Calm Calm - N/A   Clear
11:10 PM 30.2 °F - 17.6 °F 60% 30.17 in 10.0 mi Calm Calm - N/A   Clear
11:30 PM 28.4 °F - 17.6 °F 64% 30.17 in 10.0 mi Calm Calm - N/A   Clear